Location: Newark
(45.4422°N, 16.2769°E)
Time: 00:16:07
(UTC+00:00)

Tiros 1 despin weight - Pass Details

Date: 22 December 2019
Orbit: 593 x 643 km, 48.2° (Epoch: 19 January)

Event Time Altitude Azimuth Distance (km) Brightness Sun altitude
Rises 04:46:08 0° 290° (WNW) 2,892 - -17.7°
Reaches altitude 10° 04:48:30 10° 285° (WNW) 1,976 - -17.3°
Exits shadow 04:51:03 31° 270° (W) 1,076 ? -16.8°
Maximum altitude 04:52:55 53° 209° (SSW) 747 ? -16.5°
Drops below altitude 10° 04:57:14 10° 133° (SE) 1,939 ? -15.8°
Sets 04:59:33 0° 128° (SE) 2,833 ? -15.4°
